Terminal Aerodrome Forecast
Issued by NWS Atlanta, GA

Home | Current Version | Previous Version | Text Only | Print | Product List | Glossary On
Versions: 1 2 3 4 5 6 7 8 9 10 11 12 13 14 15 16 17 18 19 20 21 22 23 24 25 26 27 28 29 30 31 32 33 34 35 36
000
FTAK31 PAJN 240200 AAA
TAFAHN
TAF AMD
PAHN 240207Z 2402/2424 10008KT P6SM VCSH OVC070
     FM240600 10006KT P6SM VCSH SCT025 OVC050
     FM240900 VRB04KT P6SM VCSH SCT020 OVC040
     FM241500 12006KT P6SM -RA BKN025 OVC050
     FM242100 12008KT P6SM -RA BKN040 OVC060
      AMD LTD TO CLD VIS AND WIND=

USA.gov is the U.S. government's official web portal to all federal, state and local government web resources and services.